| time (UTC) | temp F | wind direction | speed knots | gust knots | rain 1hr in | rain 24hr in | rain mn in | humidity % | barometer mb |
| 20260506153703 | 50 | 188 | 0.0 | 1.7 | 0.00 | 0.02 | 0.02 | 93 | 1024.5 |
| 20260506153201 | 50 | 173 | 0.9 | 1.7 | 0.00 | 0.02 | 0.02 | 94 | 1024.4 |
| 20260506152658 | 50 | 203 | 0.0 | 1.7 | 0.00 | 0.02 | 0.02 | 94 | 1024.5 |
| 20260506152155 | 50 | 190 | 1.7 | 2.6 | 0.00 | 0.02 | 0.02 | 94 | 1024.5 |
| 20260506151654 | 50 | 180 | 0.0 | 2.6 | 0.00 | 0.02 | 0.02 | 96 | 1024.7 |
| 20260506151150 | 49 | 180 | 0.0 | 2.6 | 0.00 | 0.02 | 0.02 | 98 | 1024.5 |
| 20260506150647 | 49 | 180 | 0.9 | 1.7 | 0.00 | 0.02 | 0.02 | 99 | 1024.7 |
| 20260506150144 | 48 | 212 | 0.9 | 1.7 | 0.00 | 0.02 | 0.02 | 99 | 1024.6 |
| 20260506145641 | 48 | 225 | 1.7 | 1.7 | 0.00 | 0.02 | 0.02 | 99 | 1024.4 |
| 20260506145137 | 48 | 157 | 0.0 | 0.9 | 0.00 | 0.02 | 0.02 | 99 | 1024.5 |
| 20260506144635 | 48 | 160 | 0.0 | 0.0 | 0.00 | 0.02 | 0.02 | 99 | 1024.5 |
| 20260506144131 | 48 | 180 | 0.9 | 1.7 | 0.00 | 0.02 | 0.02 | 99 | 1024.5 |
| 20260506143629 | 48 | 165 | 0.0 | 0.9 | 0.00 | 0.02 | 0.02 | 99 | 1024.6 |
| 20260506143127 | 48 | 165 | 0.0 | 0.0 | 0.00 | 0.02 | 0.02 | 99 | 1024.6 |
| 20260506142625 | 48 | 203 | 0.0 | 0.0 | 0.00 | 0.02 | 0.02 | 99 | 1024.5 |
| 20260506142123 | 48 | 203 | 0.0 | 0.0 | 0.00 | 0.02 | 0.02 | 99 | 1024.5 |
| 20260506141620 | 48 | 209 | 0.0 | 0.0 | 0.00 | 0.02 | 0.02 | 99 | 1024.4 |
| 20260506141119 | 48 | 194 | 0.0 | 0.0 | 0.00 | 0.02 | 0.02 | 99 | 1024.4 |
| 20260506140616 | 48 | 209 | 0.0 | 0.0 | 0.00 | 0.02 | 0.02 | 99 | 1024.3 |
| 20260506140113 | 48 | 209 | 0.0 | 0.0 | 0.00 | 0.02 | 0.02 | 99 | 1024.3 |
| 20260506135610 | 48 | 209 | 0.9 | 0.9 | 0.00 | 0.02 | 0.02 | 99 | 1024.2 |
| 20260506135106 | 48 | 346 | 0.0 | 0.0 | 0.00 | 0.02 | 0.02 | 99 | 1024.1 |
| 20260506134602 | 48 | 346 | 0.0 | 0.0 | 0.00 | 0.02 | 0.02 | 99 | 1024.2 |
| 20260506134058 | 48 | 346 | 0.0 | 0.0 | 0.00 | 0.02 | 0.02 | 99 | 1024.2 |
| 20260506133556 | 48 | 346 | 0.0 | 0.0 | 0.00 | 0.02 | 0.02 | 99 | 1024.1 |
| 20260506133053 | 48 | 348 | 0.0 | 0.0 | 0.00 | 0.02 | 0.02 | 99 | 1023.8 |
| 20260506132550 | 48 | 348 | 0.0 | 0.0 | 0.00 | 0.02 | 0.02 | 99 | 1024.0 |
| 20260506132047 | 48 | 325 | 0.0 | 0.9 | 0.00 | 0.02 | 0.02 | 99 | 1024.0 |
| 20260506131544 | 48 | 354 | 0.0 | 0.0 | 0.00 | 0.02 | 0.02 | 99 | 1024.1 |
| 20260506131040 | 48 | 354 | 0.0 | 0.0 | 0.00 | 0.02 | 0.02 | 99 | 1023.8 |
| 20260506130537 | 48 | 354 | 0.0 | 0.0 | 0.00 | 0.02 | 0.02 | 99 | 1024.0 |
| 20260506130035 | 48 | 354 | 0.0 | 0.0 | 0.00 | 0.02 | 0.02 | 99 | 1023.8 |
| 20260506125533 | 48 | 354 | 0.0 | 0.0 | 0.00 | 0.02 | 0.02 | 99 | 1023.8 |
| 20260506125031 | 48 | 354 | 0.0 | 0.0 | 0.00 | 0.02 | 0.02 | 99 | 1023.8 |
| 20260506124528 | 48 | 354 | 0.0 | 0.0 | 0.00 | 0.02 | 0.02 | 99 | 1023.8 |
| 20260506124026 | 48 | 354 | 0.0 | 0.0 | 0.00 | 0.02 | 0.02 | 99 | 1023.8 |
| 20260506123524 | 48 | 354 | 0.0 | 0.0 | 0.00 | 0.02 | 0.02 | 99 | 1023.7 |
| 20260506123022 | 48 | 354 | 0.0 | 0.0 | 0.00 | 0.02 | 0.02 | 99 | 1023.7 |
| 20260506122518 | 48 | 354 | 0.0 | 0.0 | 0.00 | 0.02 | 0.02 | 99 | 1023.6 |
| 20260506122016 | 48 | 209 | 0.0 | 0.9 | 0.00 | 0.02 | 0.02 | 99 | 1023.4 |
| 20260506121513 | 48 | 209 | 0.0 | 0.0 | 0.00 | 0.02 | 0.02 | 99 | 1023.5 |
| 20260506121009 | 48 | 188 | 0.0 | 0.0 | 0.00 | 0.02 | 0.02 | 99 | 1023.5 |
| 20260506120508 | 48 | 216 | 0.0 | 1.7 | 0.00 | 0.02 | 0.02 | 99 | 1023.4 |
| 20260506120005 | 48 | 195 | 0.0 | 0.9 | 0.00 | 0.02 | 0.02 | 99 | 1023.3 |
| 20260506115502 | 48 | 261 | 0.0 | 0.0 | 0.00 | 0.02 | 0.02 | 99 | 1023.5 |
| 20260506115001 | 48 | 261 | 0.0 | 0.0 | 0.00 | 0.02 | 0.02 | 99 | 1023.5 |
| 20260506114457 | 48 | 261 | 0.0 | 0.0 | 0.00 | 0.02 | 0.02 | 99 | 1023.4 |
| 20260506113956 | 48 | 261 | 0.0 | 0.9 | 0.00 | 0.02 | 0.02 | 99 | 1023.5 |
| 20260506113454 | 48 | 187 | 0.0 | 0.9 | 0.02 | 0.02 | 0.02 | 99 | 1023.4 |
| 20260506112950 | 48 | 195 | 0.0 | 0.0 | 0.02 | 0.02 | 0.02 | 99 | 1023.3 |
| 20260506112447 | 48 | 188 | 0.0 | 0.9 | 0.00 | 0.01 | 0.01 | 99 | 1023.2 |
| 20260506111945 | 48 | 200 | 0.0 | 0.9 | 0.00 | 0.01 | 0.01 | 99 | 1023.3 |
| 20260506111443 | 48 | 229 | 0.0 | 0.9 | 0.00 | 0.01 | 0.01 | 99 | 1023.5 |
| 20260506110939 | 48 | 209 | 0.0 | 0.0 | 0.00 | 0.01 | 0.01 | 99 | 1023.3 |
| 20260506110437 | 48 | 191 | 0.0 | 1.7 | 0.00 | 0.01 | 0.01 | 99 | 1023.1 |
| 20260506105933 | 48 | 192 | 0.0 | 1.7 | 0.00 | 0.01 | 0.01 | 99 | 1023.2 |
| 20260506105430 | 48 | 196 | 1.7 | 1.7 | 0.00 | 0.01 | 0.01 | 99 | 1023.0 |
| 20260506104927 | 48 | 168 | 0.0 | 0.9 | 0.00 | 0.01 | 0.01 | 99 | 1023.1 |
| 20260506104425 | 48 | 203 | 0.0 | 1.7 | 0.00 | 0.01 | 0.01 | 99 | 1023.0 |
| 20260506103923 | 48 | 187 | 0.0 | 0.0 | 0.00 | 0.01 | 0.01 | 99 | 1023.2 |
| 20260506103420 | 48 | 180 | 0.0 | 1.7 | 0.00 | 0.01 | 0.01 | 99 | 1023.0 |
| 20260506102917 | 48 | 200 | 0.9 | 1.7 | 0.00 | 0.01 | 0.01 | 99 | 1023.0 |
| 20260506102415 | 48 | 192 | 0.0 | 0.9 | 0.02 | 0.01 | 0.01 | 99 | 1022.9 |
| 20260506101912 | 48 | 165 | 0.0 | 0.9 | 0.02 | 0.01 | 0.01 | 99 | 1022.7 |
| 20260506101408 | 48 | 180 | 0.0 | 0.9 | 0.00 | 0.01 | 0.01 | 99 | 1022.7 |
| 20260506100906 | 48 | 195 | 0.0 | 1.7 | 0.02 | 0.01 | 0.01 | 99 | 1022.9 |
| 20260506100404 | 48 | 198 | 0.0 | 1.7 | 0.05 | 0.01 | 0.01 | 99 | 1022.9 |
| 20260506095902 | 48 | 185 | 0.0 | 1.7 | 0.02 | 0.00 | 0.00 | 99 | 1022.7 |
| 20260506095400 | 48 | 186 | 0.9 | 0.9 | 0.00 | 0.00 | 0.00 | 99 | 1022.9 |
| 20260506094856 | 48 | 195 | 0.0 | 0.9 | 0.00 | 0.00 | 0.00 | 99 | 1022.5 |
| 20260506094355 | 48 | 180 | 0.0 | 0.9 | 0.00 | 0.00 | 0.00 | 99 | 1022.9 |
| 20260506093852 | 48 | 186 | 0.9 | 1.7 | 0.00 | 0.00 | 0.00 | 99 | 1022.9 |
| 20260506093350 | 48 | 192 | 0.0 | 0.0 | 0.00 | 0.00 | 0.00 | 99 | 1022.7 |
| 20260506092847 | 47 | 180 | 0.0 | 0.9 | 0.00 | 0.00 | 0.00 | 99 | 1022.7 |
| 20260506092345 | 48 | 192 | 0.0 | 0.9 | 0.00 | 0.00 | 0.00 | 99 | 1022.9 |
| 20260506091841 | 48 | 180 | 0.0 | 1.7 | 0.00 | 0.00 | 0.00 | 99 | 1022.5 |
| 20260506091340 | 48 | 172 | 0.0 | 0.9 | 0.00 | 0.00 | 0.00 | 99 | 1022.9 |
| 20260506090837 | 48 | 173 | 0.9 | 1.7 | 0.00 | 0.00 | 0.00 | 99 | 1022.9 |
| 20260506090335 | 48 | 203 | 0.0 | 1.7 | 0.00 | 0.00 | 0.00 | 99 | 1022.6 |
| 20260506085831 | 48 | 209 | 0.9 | 0.9 | 0.00 | 0.00 | 0.00 | 99 | 1022.7 |
| 20260506085327 | 48 | 188 | 0.0 | 0.0 | 0.00 | 0.00 | 0.00 | 99 | 1022.6 |
| 20260506084824 | 48 | 195 | 0.0 | 0.9 | 0.00 | 0.00 | 0.00 | 99 | 1022.6 |
| 20260506084320 | 48 | 186 | 0.0 | 1.7 | 0.00 | 0.00 | 0.00 | 99 | 1022.6 |
| 20260506083817 | 47 | 198 | 0.0 | 1.7 | 0.00 | 0.00 | 0.00 | 99 | 1022.7 |
| 20260506083314 | 47 | 188 | 0.0 | 1.7 | 0.00 | 0.00 | 0.00 | 99 | 1022.6 |
| 20260506082812 | 48 | 180 | 0.9 | 0.9 | 0.00 | 0.00 | 0.00 | 99 | 1022.7 |
| 20260506082308 | 47 | 180 | 0.9 | 1.7 | 0.00 | 0.00 | 0.00 | 99 | 1022.9 |
| 20260506081805 | 47 | 246 | 0.0 | 1.7 | 0.00 | 0.00 | 0.00 | 99 | 1022.7 |
| 20260506081303 | 47 | 169 | 0.9 | 1.7 | 0.00 | 0.00 | 0.00 | 99 | 1022.9 |
| 20260506080800 | 48 | 176 | 1.7 | 1.7 | 0.00 | 0.00 | 0.00 | 99 | 1022.7 |
| 20260506080256 | 48 | 203 | 0.9 | 1.7 | 0.00 | 0.00 | 0.00 | 99 | 1022.6 |
| 20260506073240 | 48 | 180 | 0.0 | 1.7 | 0.00 | 0.00 | 0.00 | 99 | 1022.6 |
| 20260506072737 | 48 | 172 | 0.0 | 1.7 | 0.00 | 0.00 | 0.00 | 99 | 1022.5 |
| 20260506072234 | 48 | 198 | 0.0 | 0.9 | 0.00 | 0.00 | 0.00 | 99 | 1022.5 |
| 20260506071732 | 48 | 188 | 0.0 | 0.9 | 0.00 | 0.00 | 0.00 | 99 | 1022.5 |
| 20260506071230 | 48 | 180 | 0.0 | 1.7 | 0.00 | 0.00 | 0.00 | 99 | 1022.4 |
| 20260506070727 | 48 | 180 | 0.0 | 0.9 | 0.00 | 0.00 | 0.00 | 99 | 1022.6 |
| 20260506070224 | 48 | 203 | 0.0 | 0.9 | 0.00 | 0.00 | 0.00 | 99 | 1022.5 |
| 20260506062201 | 48 | 240 | 0.9 | 0.9 | 0.00 | 0.08 | 0.08 | 99 | 1022.0 |
| 20260506061656 | 48 | 209 | 0.0 | 1.7 | 0.00 | 0.08 | 0.08 | 99 | 1022.1 |
| 20260506061154 | 48 | 195 | 0.0 | 1.7 | 0.00 | 0.08 | 0.08 | 99 | 1022.0 |
| 20260506060653 | 48 | 240 | 0.0 | 0.0 | 0.00 | 0.08 | 0.08 | 98 | 1021.9 |
| 20260506060149 | 47 | 240 | 0.0 | 0.0 | 0.00 | 0.08 | 0.08 | 98 | 1022.0 |
| 20260506051121 | 48 | 203 | 0.0 | 0.0 | 0.00 | 0.08 | 0.08 | 99 | 1021.4 |
| 20260506050620 | 48 | 203 | 0.0 | 0.0 | 0.00 | 0.08 | 0.08 | 99 | 1021.5 |
| 20260506050116 | 48 | 203 | 0.0 | 0.0 | 0.00 | 0.08 | 0.08 | 99 | 1021.5 |
| 20260506045109 | 48 | 203 | 0.0 | 0.0 | 0.00 | 0.08 | 0.08 | 99 | 1021.8 |
| 20260506044607 | 48 | 203 | 0.0 | 0.0 | 0.00 | 0.08 | 0.08 | 99 | 1021.3 |
| 20260506044104 | 48 | 203 | 0.0 | 0.9 | 0.00 | 0.08 | 0.08 | 99 | 1021.6 |
| 20260506043601 | 48 | 339 | 1.7 | 1.7 | 0.00 | 0.08 | 0.08 | 99 | 1021.3 |
| 20260506043100 | 48 | 352 | 0.0 | 0.0 | 0.00 | 0.08 | 0.08 | 99 | 1021.3 |
| 20260506042558 | 48 | 340 | 0.0 | 0.9 | 0.00 | 0.08 | 0.08 | 99 | 1021.5 |
| 20260506042056 | 48 | 0 | 0.0 | 0.0 | 0.00 | 0.08 | 0.08 | 99 | 1021.4 |
| 20260506041554 | 48 | 352 | 0.0 | 0.0 | 0.00 | 0.08 | 0.08 | 99 | 1021.2 |
| 20260506041051 | 48 | 331 | 0.0 | 0.0 | 0.00 | 0.08 | 0.08 | 99 | 1021.2 |
| 20260506040549 | 48 | 353 | 0.0 | 0.9 | 0.00 | 0.08 | 0.08 | 99 | 1021.0 |
| 20260506040044 | 48 | 0 | 0.0 | 0.0 | 0.00 | 0.08 | 0.08 | 99 | 1020.9 |
| 20260506035541 | 48 | 354 | 0.0 | 0.0 | 0.00 | 0.08 | 0.08 | 99 | 1021.0 |
| 20260506035038 | 48 | 346 | 0.0 | 0.0 | 0.00 | 0.08 | 0.08 | 99 | 1021.0 |
| 20260506034535 | 48 | 8 | 0.0 | 0.0 | 0.00 | 0.08 | 0.08 | 99 | 1021.0 |
| 20260506034032 | 48 | 352 | 0.0 | 0.9 | 0.00 | 0.08 | 0.08 | 99 | 1020.8 |
| 20260506033530 | 48 | 352 | 0.0 | 0.0 | 0.00 | 0.08 | 0.08 | 99 | 1021.2 |
| 20260506033026 | 48 | 352 | 0.0 | 0.9 | 0.00 | 0.08 | 0.08 | 99 | 1020.6 |
| 20260506032524 | 48 | 209 | 0.0 | 0.0 | 0.00 | 0.08 | 0.08 | 99 | 1020.5 |
| 20260506032020 | 48 | 209 | 0.0 | 0.0 | 0.00 | 0.08 | 0.08 | 99 | 1020.9 |
| 20260506031518 | 48 | 192 | 1.7 | 2.6 | 0.00 | 0.08 | 0.08 | 99 | 1020.4 |
| 20260506031015 | 48 | 220 | 0.0 | 1.7 | 0.00 | 0.08 | 0.08 | 99 | 1020.2 |
| 20260506030513 | 47 | 180 | 0.0 | 1.7 | 0.00 | 0.08 | 0.08 | 99 | 1020.3 |
| 20260506030010 | 48 | 192 | 1.7 | 2.6 | 0.00 | 0.08 | 0.08 | 99 | 1020.2 |
| 20260506025507 | 47 | 210 | 1.7 | 2.6 | 0.00 | 0.08 | 0.08 | 99 | 1020.1 |
| 20260506025003 | 48 | 200 | 0.0 | 2.6 | 0.00 | 0.08 | 0.08 | 99 | 1020.2 |
| 20260506024500 | 48 | 200 | 0.9 | 2.6 | 0.00 | 0.08 | 0.08 | 99 | 1020.2 |
| 20260506023956 | 47 | 200 | 0.9 | 1.7 | 0.00 | 0.08 | 0.08 | 99 | 1020.1 |
| 20260506023453 | 48 | 203 | 0.9 | 2.6 | 0.00 | 0.08 | 0.08 | 99 | 1020.2 |
| 20260506022949 | 48 | 213 | 1.7 | 2.6 | 0.00 | 0.08 | 0.08 | 99 | 1019.9 |
| 20260506022447 | 48 | 197 | 2.6 | 2.6 | 0.00 | 0.08 | 0.08 | 99 | 1019.9 |
| 20260506021945 | 48 | 174 | 2.6 | 2.6 | 0.00 | 0.08 | 0.08 | 99 | 1019.9 |
| 20260506021442 | 48 | 188 | 0.0 | 2.6 | 0.00 | 0.08 | 0.08 | 99 | 1020.1 |
| 20260506020939 | 48 | 178 | 2.6 | 3.5 | 0.00 | 0.08 | 0.08 | 99 | 1019.8 |
| 20260506020437 | 47 | 185 | 2.6 | 3.5 | 0.00 | 0.08 | 0.08 | 99 | 1019.7 |
| 20260506015934 | 48 | 174 | 2.6 | 3.5 | 0.00 | 0.08 | 0.08 | 99 | 1019.8 |
| 20260506015432 | 48 | 176 | 1.7 | 3.5 | 0.00 | 0.08 | 0.08 | 99 | 1019.9 |
| 20260506014928 | 48 | 200 | 0.9 | 1.7 | 0.00 | 0.08 | 0.08 | 99 | 1019.7 |
| 20260506014425 | 48 | 180 | 0.0 | 2.6 | 0.00 | 0.08 | 0.08 | 99 | 1019.9 |
| 20260506013921 | 48 | 168 | 1.7 | 1.7 | 0.00 | 0.08 | 0.08 | 99 | 1020.0 |
| 20260506013420 | 48 | 185 | 0.9 | 2.6 | 0.00 | 0.08 | 0.08 | 99 | 1020.2 |
| 20260506012915 | 48 | 194 | 0.9 | 2.6 | 0.00 | 0.08 | 0.08 | 99 | 1020.1 |
| 20260506012412 | 48 | 168 | 1.7 | 2.6 | 0.00 | 0.08 | 0.08 | 99 | 1019.9 |
| 20260506011909 | 48 | 180 | 0.9 | 2.6 | 0.00 | 0.08 | 0.08 | 99 | 1019.8 |
| 20260506011406 | 48 | 180 | 1.7 | 2.6 | 0.00 | 0.08 | 0.08 | 99 | 1019.9 |
| 20260506010903 | 48 | 194 | 0.9 | 2.6 | 0.00 | 0.08 | 0.08 | 99 | 1019.9 |
| 20260506010402 | 48 | 180 | 0.9 | 1.7 | 0.00 | 0.08 | 0.08 | 99 | 1019.9 |
| 20260506005858 | 48 | 203 | 0.0 | 3.5 | 0.00 | 0.08 | 0.08 | 99 | 1019.5 |
| 20260506005355 | 48 | 199 | 3.5 | 3.5 | 0.00 | 0.08 | 0.08 | 99 | 1019.8 |
| 20260506004851 | 48 | 173 | 1.7 | 3.5 | 0.00 | 0.08 | 0.08 | 99 | 1019.4 |
| 20260506004349 | 48 | 170 | 1.7 | 2.6 | 0.00 | 0.08 | 0.08 | 99 | 1019.7 |
| 20260506003845 | 48 | 165 | 0.0 | 1.7 | 0.00 | 0.08 | 0.08 | 99 | 1019.4 |
| 20260506003341 | 48 | 176 | 1.7 | 2.6 | 0.00 | 0.08 | 0.08 | 99 | 1019.4 |
| 20260506002838 | 48 | 197 | 0.0 | 2.6 | 0.00 | 0.08 | 0.08 | 99 | 1019.5 |
| 20260506002334 | 48 | 221 | 1.7 | 2.6 | 0.00 | 0.08 | 0.08 | 99 | 1019.5 |
| 20260506001829 | 48 | 169 | 0.9 | 2.6 | 0.00 | 0.08 | 0.08 | 99 | 1019.4 |
| 20260506001327 | 48 | 200 | 0.9 | 0.9 | 0.00 | 0.08 | 0.08 | 99 | 1019.8 |
| 20260506000824 | 48 | 209 | 0.0 | 1.7 | 0.00 | 0.08 | 0.08 | 99 | 1019.4 |
| 20260506000323 | 48 | 203 | 0.0 | 1.7 | 0.00 | 0.08 | 0.08 | 99 | 1019.3 |
| 20260505235818 | 48 | 191 | 0.9 | 0.9 | 0.02 | 0.08 | 0.08 | 99 | 1019.4 |
| 20260505235316 | 48 | 180 | 1.7 | 1.7 | 0.02 | 0.08 | 0.08 | 99 | 1019.4 |
| 20260505234813 | 48 | 166 | 0.9 | 1.7 | 0.00 | 0.08 | 0.08 | 99 | 1019.4 |
| 20260505234311 | 48 | 270 | 0.0 | 0.9 | 0.00 | 0.08 | 0.08 | 99 | 1019.4 |
| 20260505233807 | 48 | 212 | 1.7 | 2.6 | 0.00 | 0.08 | 0.08 | 99 | 1019.2 |
| 20260505233305 | 48 | 180 | 0.9 | 0.9 | 0.00 | 0.08 | 0.08 | 99 | 1019.3 |
| 20260505232802 | 48 | 194 | 0.0 | 1.7 | 0.02 | 0.08 | 0.08 | 99 | 1019.4 |
| 20260505232259 | 47 | 176 | 1.7 | 2.6 | 0.02 | 0.08 | 0.08 | 99 | 1019.2 |
| 20260505231755 | 48 | 187 | 0.0 | 0.0 | 0.00 | 0.07 | 0.07 | 99 | 1019.4 |
| 20260505231254 | 48 | 186 | 0.0 | 1.7 | 0.02 | 0.07 | 0.07 | 99 | 1019.4 |
| 20260505230752 | 48 | 212 | 0.9 | 2.6 | 0.02 | 0.07 | 0.07 | 99 | 1019.2 |
| 20260505230249 | 48 | 191 | 2.6 | 2.6 | 0.00 | 0.07 | 0.07 | 99 | 1019.4 |
| 20260505225746 | 47 | 228 | 1.7 | 2.6 | 0.00 | 0.07 | 0.07 | 99 | 1019.5 |
| 20260505225243 | 47 | 168 | 0.9 | 3.5 | 0.00 | 0.07 | 0.07 | 99 | 1019.3 |
| 20260505224737 | 47 | 199 | 0.0 | 1.7 | 0.00 | 0.07 | 0.07 | 99 | 1019.5 |
| 20260505224235 | 47 | 187 | 0.0 | 1.7 | 0.00 | 0.07 | 0.07 | 99 | 1019.4 |
| 20260505223733 | 47 | 203 | 0.0 | 2.6 | 0.00 | 0.07 | 0.07 | 99 | 1019.5 |
| 20260505223229 | 47 | 184 | 1.7 | 2.6 | 0.00 | 0.07 | 0.07 | 99 | 1019.4 |
| 20260505222725 | 47 | 177 | 1.7 | 3.5 | 0.00 | 0.07 | 0.07 | 99 | 1019.4 |
| 20260505222221 | 47 | 157 | 0.0 | 2.6 | 0.00 | 0.07 | 0.07 | 99 | 1019.7 |
| 20260505221719 | 47 | 212 | 3.5 | 4.3 | 0.00 | 0.07 | 0.07 | 99 | 1019.7 |
| 20260505221215 | 47 | 166 | 1.7 | 2.6 | 0.00 | 0.07 | 0.07 | 99 | 1019.4 |
| 20260505220712 | 48 | 222 | 2.6 | 2.6 | 0.00 | 0.07 | 0.07 | 98 | 1019.5 |
| 20260505220210 | 48 | 243 | 0.9 | 1.7 | 0.00 | 0.07 | 0.07 | 98 | 1019.8 |
| 20260505215708 | 48 | 183 | 2.6 | 2.6 | 0.00 | 0.07 | 0.07 | 98 | 1019.8 |
| 20260505215205 | 48 | 162 | 1.7 | 2.6 | 0.00 | 0.07 | 0.07 | 98 | 1019.7 |
| 20260505214703 | 48 | 194 | 2.6 | 2.6 | 0.00 | 0.07 | 0.07 | 98 | 1019.7 |
| 20260505214200 | 48 | 194 | 0.0 | 2.6 | 0.00 | 0.07 | 0.07 | 98 | 1019.7 |
| 20260505213657 | 48 | 203 | 0.9 | 2.6 | 0.00 | 0.07 | 0.07 | 98 | 1019.8 |
| 20260505213154 | 48 | 199 | 2.6 | 3.5 | 0.00 | 0.07 | 0.07 | 98 | 1019.7 |
| 20260505212650 | 47 | 198 | 1.7 | 2.6 | 0.00 | 0.07 | 0.07 | 98 | 1019.5 |
| 20260505212148 | 48 | 185 | 0.0 | 1.7 | 0.00 | 0.07 | 0.07 | 98 | 1019.8 |
| 20260505211644 | 47 | 188 | 0.0 | 1.7 | 0.00 | 0.07 | 0.07 | 98 | 1019.9 |
| 20260505211142 | 47 | 187 | 0.9 | 1.7 | 0.00 | 0.07 | 0.07 | 98 | 1019.8 |
| 20260505210638 | 47 | 180 | 2.6 | 2.6 | 0.00 | 0.07 | 0.07 | 98 | 1019.4 |
| 20260505210135 | 47 | 180 | 1.7 | 2.6 | 0.00 | 0.07 | 0.07 | 98 | 1019.8 |
| 20260505205633 | 47 | 215 | 0.9 | 2.6 | 0.00 | 0.07 | 0.07 | 98 | 1019.5 |
| 20260505205131 | 47 | 213 | 1.7 | 1.7 | 0.00 | 0.07 | 0.07 | 98 | 1019.4 |
| 20260505204627 | 48 | 183 | 2.6 | 2.6 | 0.00 | 0.07 | 0.07 | 98 | 1019.7 |
| 20260505204126 | 48 | 180 | 1.7 | 2.6 | 0.00 | 0.07 | 0.07 | 98 | 1019.5 |
| 20260505203622 | 48 | 206 | 0.0 | 1.7 | 0.00 | 0.07 | 0.07 | 98 | 1019.5 |
| 20260505203119 | 47 | 180 | 0.0 | 1.7 | 0.00 | 0.07 | 0.07 | 98 | 1019.4 |
| 20260505202614 | 48 | 206 | 1.7 | 2.6 | 0.00 | 0.07 | 0.07 | 98 | 1019.4 |
| 20260505202110 | 47 | 201 | 0.0 | 1.7 | 0.00 | 0.07 | 0.07 | 98 | 1019.5 |
| 20260505201607 | 47 | 180 | 1.7 | 2.6 | 0.00 | 0.07 | 0.07 | 98 | 1019.4 |
| 20260505201105 | 47 | 217 | 1.7 | 3.5 | 0.00 | 0.07 | 0.07 | 98 | 1019.5 |
| 20260505200603 | 47 | 270 | 0.0 | 0.9 | 0.00 | 0.07 | 0.07 | 98 | 1019.4 |
| 20260505200100 | 47 | 197 | 1.7 | 1.7 | 0.00 | 0.07 | 0.07 | 98 | 1019.2 |
| 20260505195556 | 47 | 169 | 2.6 | 5.2 | 0.00 | 0.07 | 0.07 | 97 | 1019.4 |
| 20260505195054 | 47 | 188 | 0.0 | 3.5 | 0.00 | 0.07 | 0.07 | 97 | 1019.4 |
| 20260505194550 | 47 | 210 | 1.7 | 3.5 | 0.00 | 0.07 | 0.07 | 97 | 1019.3 |
| 20260505194046 | 48 | 180 | 3.5 | 3.5 | 0.00 | 0.07 | 0.07 | 97 | 1019.4 |
| 20260505193543 | 48 | 180 | 2.6 | 2.6 | 0.00 | 0.07 | 0.07 | 97 | 1019.4 |
| 20260505193040 | 47 | 190 | 1.7 | 3.5 | 0.00 | 0.07 | 0.07 | 97 | 1019.7 |
| 20260505192539 | 47 | 185 | 1.7 | 3.5 | 0.00 | 0.07 | 0.07 | 97 | 1019.2 |
| 20260505192036 | 48 | 177 | 1.7 | 2.6 | 0.00 | 0.07 | 0.07 | 97 | 1019.3 |
| 20260505191534 | 48 | 173 | 1.7 | 2.6 | 0.00 | 0.07 | 0.07 | 97 | 1019.4 |
| 20260505191032 | 48 | 190 | 1.7 | 2.6 | 0.00 | 0.07 | 0.07 | 97 | 1019.3 |
| 20260505190526 | 47 | 206 | 1.7 | 3.5 | 0.00 | 0.07 | 0.07 | 96 | 1019.4 |
| 20260505190023 | 48 | 174 | 2.6 | 3.5 | 0.00 | 0.07 | 0.07 | 97 | 1019.3 |
| 20260505185520 | 47 | 214 | 1.7 | 2.6 | 0.00 | 0.07 | 0.07 | 97 | 1019.4 |
| 20260505185016 | 47 | 209 | 1.7 | 2.6 | 0.00 | 0.07 | 0.07 | 97 | 1019.1 |
| 20260505184513 | 47 | 203 | 0.9 | 2.6 | 0.00 | 0.07 | 0.07 | 97 | 1019.2 |
| 20260505184009 | 46 | 192 | 1.7 | 2.6 | 0.00 | 0.07 | 0.07 | 97 | 1019.2 |
| 20260505183506 | 46 | 196 | 0.0 | 2.6 | 0.00 | 0.07 | 0.07 | 97 | 1019.3 |
| 20260505183003 | 46 | 240 | 0.9 | 1.7 | 0.00 | 0.07 | 0.07 | 97 | 1019.2 |
| 20260505182500 | 46 | 203 | 0.9 | 2.6 | 0.00 | 0.07 | 0.07 | 97 | 1019.1 |
| 20260505181956 | 46 | 195 | 0.0 | 2.6 | 0.00 | 0.07 | 0.07 | 97 | 1019.2 |
| 20260505181453 | 46 | 198 | 0.0 | 2.6 | 0.00 | 0.07 | 0.07 | 97 | 1019.1 |
| 20260505180950 | 46 | 214 | 1.7 | 2.6 | 0.00 | 0.07 | 0.07 | 97 | 1019.1 |
| 20260505180446 | 46 | 220 | 0.9 | 1.7 | 0.00 | 0.07 | 0.07 | 98 | 1019.1 |
| 20260505175943 | 46 | 209 | 3.5 | 3.5 | 0.00 | 0.07 | 0.07 | 97 | 1019.0 |
| 20260505175439 | 47 | 175 | 1.7 | 2.6 | 0.00 | 0.07 | 0.07 | 97 | 1018.9 |
| 20260505174936 | 47 | 188 | 1.7 | 1.7 | 0.00 | 0.07 | 0.07 | 97 | 1018.9 |
| 20260505174434 | 46 | 184 | 0.0 | 2.6 | 0.00 | 0.07 | 0.07 | 97 | 1018.9 |
| 20260505173929 | 47 | 201 | 1.7 | 2.6 | 0.00 | 0.07 | 0.07 | 97 | 1018.9 |
| 20260505173426 | 46 | 208 | 1.7 | 2.6 | 0.00 | 0.07 | 0.07 | 96 | 1018.7 |
| 20260505172923 | 47 | 174 | 0.9 | 2.6 | 0.00 | 0.07 | 0.07 | 95 | 1018.8 |
| 20260505172422 | 47 | 198 | 2.6 | 2.6 | 0.00 | 0.07 | 0.07 | 95 | 1018.9 |
| 20260505171920 | 46 | 204 | 1.7 | 2.6 | 0.00 | 0.07 | 0.07 | 94 | 1018.5 |
| 20260505171418 | 47 | 176 | 0.0 | 2.6 | 0.00 | 0.07 | 0.07 | 95 | 1018.4 |
| 20260505170914 | 47 | 173 | 0.0 | 2.6 | 0.00 | 0.07 | 0.07 | 95 | 1018.5 |
| 20260505170411 | 47 | 205 | 2.6 | 2.6 | 0.00 | 0.07 | 0.07 | 94 | 1018.5 |
| 20260505165906 | 46 | 186 | 2.6 | 2.6 | 0.00 | 0.07 | 0.07 | 95 | 1018.7 |
| 20260505165403 | 46 | 173 | 1.7 | 2.6 | 0.00 | 0.07 | 0.07 | 94 | 1018.7 |
| 20260505164858 | 47 | 180 | 1.7 | 1.7 | 0.00 | 0.07 | 0.07 | 95 | 1018.4 |
| 20260505164355 | 46 | 169 | 2.6 | 2.6 | 0.00 | 0.07 | 0.07 | 94 | 1018.3 |
| 20260505163853 | 46 | 162 | 0.9 | 1.7 | 0.00 | 0.07 | 0.07 | 94 | 1018.4 |
| 20260505163352 | 46 | 180 | 1.7 | 1.7 | 0.00 | 0.07 | 0.07 | 95 | 1018.8 |
| 20260505162850 | 45 | 229 | 0.9 | 3.5 | 0.00 | 0.07 | 0.07 | 95 | 1018.3 |
| 20260505162346 | 45 | 217 | 1.7 | 3.5 | 0.00 | 0.07 | 0.07 | 96 | 1018.3 |
| 20260505161843 | 45 | 175 | 2.6 | 3.5 | 0.00 | 0.07 | 0.07 | 96 | 1018.5 |
| 20260505161340 | 45 | 180 | 1.7 | 3.5 | 0.00 | 0.07 | 0.07 | 96 | 1018.7 |
| 20260505160837 | 46 | 185 | 0.9 | 4.3 | 0.00 | 0.07 | 0.07 | 97 | 1018.4 |
| 20260505160335 | 46 | 210 | 2.6 | 3.5 | 0.00 | 0.07 | 0.07 | 96 | 1018.2 |